This is the latest recevied weather packets stored in our database for station/object KP4FJC. If no packets are shown the sender has not sent any weather packets the latest 10 day(s).
| Time | Temp. | Humidity | Pressure | Rain* | Wind** | Luminosity | Snow |
|---|---|---|---|---|---|---|---|
| 1778065583 | 24.44° C | 86% | 1019.5 hPa | 0 mm | - | 122 W/m² | - |
| 1778065280 | 23.89° C | 87% | 1019.4 hPa | 0 mm | - | 112 W/m² | - |
| 1778064976 | 23.89° C | 88% | 1019.4 hPa | 0 mm | - | 121 W/m² | - |
| 1778064673 | 23.89° C | 88% | 1019.3 hPa | 0 mm | - | 60 W/m² | - |
| 1778064372 | 23.33° C | 89% | 1019.4 hPa | 0 mm | - | 68 W/m² | - |
| 1778064069 | 23.33° C | 90% | 1019.4 hPa | 0 mm | - | 56 W/m² | - |
| 1778063766 | 23.33° C | 90% | 1019.2 hPa | 0 mm | - | 56 W/m² | - |
| 1778063463 | 22.78° C | 91% | 1019.1 hPa | 0 mm | - | 29 W/m² | - |
| 1778063161 | 22.78° C | 91% | 1018.8 hPa | 0 mm | - | 27 W/m² | - |
| 1778062858 | 22.78° C | 91% | 1019 hPa | 0 mm | - | 26 W/m² | - |
| 1778062555 | 22.78° C | 91% | 1019 hPa | 0 mm | - | 19 W/m² | - |
| 1778062252 | 22.78° C | 91% | 1019.1 hPa | 0 mm | - | 15 W/m² | - |
| 1778061950 | 22.78° C | 90% | 1018.8 hPa | 0 mm | - | 10 W/m² | - |
| 1778061648 | 22.78° C | 90% | 1019 hPa | 0 mm | - | 7 W/m² | - |
| 1778061346 | 22.78° C | 90% | 1019.1 hPa | 0 mm | - | 4 W/m² | - |
| 1778061042 | 23.33° C | 90% | 1018.9 hPa | 0 mm | - | 2 W/m² | - |
| 1778060740 | 22.78° C | 90% | 1018.8 hPa | 0 mm | - | 1 W/m² | - |
| 1778060438 | 23.33° C | 90% | 1018.9 hPa | 0 mm | - | 0 W/m² | - |
| 1778060136 | 23.33° C | 90% | 1018.9 hPa | 0 mm | - | 0 W/m² | - |
| 1778059833 | 23.33° C | 90% | 1018.9 hPa | 0 mm | - | 0 W/m² | - |
| 1778059531 | 23.33° C | 90% | 1018.8 hPa | 0 mm | - | 0 W/m² | - |
| 1778059227 | 23.33° C | 90% | 1018.9 hPa | 0 mm | - | 0 W/m² | - |
| 1778058926 | 23.33° C | 90% | 1018.8 hPa | 0 mm | - | 0 W/m² | - |
| 1778058622 | 23.33° C | 90% | 1018.7 hPa | 0 mm | - | 0 W/m² | - |
| 1778058320 | 23.33° C | 90% | 1018.8 hPa | 0 mm | - | 0 W/m² | - |
* Rain latest hour (hover to see other rain measurements)
** Current wind speed in m/s (hover to see current wind gust speed)